Total_Precipitation_Accumulation
3.24 3.66 4.34 3.84 3.28 3.16 3.34 3.34 3.15 3.00 2.85 2.76 2.63 2.44 2.14 1.80 1.67 1.60 1.50 1.44 1.39 1.42 1.32 1.33 1.32 1.30 1.50 1.68 1.72 1.74 1.76 1.85 2.08 2.40 2.56 2.56 2.65 2.84 3.10 3.29 3.16 2.41 2.29
2.67 3.27 3.82 3.51 3.01 2.91 2.95 3.06 3.01 2.93 2.88 2.72 2.70 2.46 2.22 1.95 1.71 1.58 1.48 1.37 1.35 1.32 1.16 1.18 1.24 1.21 1.32 1.46 1.59 1.62 1.75 2.03 2.54 3.05 3.27 2.99 2.98 3.15 3.24 3.17 3.10 2.53 2.24
2.15 2.48 2.86 3.05 2.83 2.73 2.62 2.75 2.88 2.74 2.75 2.56 2.45 2.28 2.18 1.97 1.68 1.51 1.41 1.40 1.38 1.29 1.11 1.15 1.19 1.14 1.27 1.42 1.52 1.53 1.77 2.25 2.97 3.83 4.06 3.28 2.83 3.16 3.24 3.07 2.74 2.33 2.06
1.81 2.24 2.34 2.65 2.58 2.42 2.31 2.46 2.52 2.54 2.46 2.38 2.20 2.04 1.99 1.90 1.63 1.35 1.27 1.28 1.24 1.17 1.12 1.17 1.18 1.21 1.24 1.29 1.41 1.65 1.96 2.27 2.97 3.64 3.66 2.71 2.27 2.56 2.76 2.46 2.23 2.09 1.85
1.70 2.02 2.32 2.38 2.18 2.07 2.00 2.14 2.22 2.23 2.15 2.17 2.01 1.89 1.78 1.66 1.46 1.24 1.14 1.18 1.16 1.15 1.10 1.12 1.27 1.36 1.31 1.32 1.45 1.74 2.12 2.51 2.96 3.21 2.76 2.87 2.73 2.44 2.29 2.13 2.00 1.80 1.61
1.35 1.50 1.88 2.04 1.91 1.91 1.89 1.89 1.97 1.95 1.97 2.01 1.91 1.77 1.80 1.72 1.56 1.30 1.15 1.14 1.16 1.19 1.17 1.18 1.32 1.38 1.31 1.30 1.45 1.80 2.13 2.63 2.76 2.16 1.83 2.16 2.15 2.13 2.10 2.07 1.90 1.69 1.58
1.24 1.34 1.57 1.84 1.75 1.74 1.70 1.62 1.72 1.79 1.80 1.80 1.78 1.59 1.66 1.67 1.56 1.34 1.18 1.14 1.09 1.14 1.21 1.24 1.29 1.31 1.28 1.34 1.47 1.81 2.25 2.63 2.40 1.74 1.53 1.84 1.75 1.87 2.06 2.11 2.05 1.76 1.52
1.18 1.24 1.48 1.76 1.73 1.66 1.62 1.61 1.71 1.77 1.64 1.59 1.59 1.48 1.48 1.53 1.52 1.44 1.30 1.24 1.15 1.17 1.28 1.30 1.30 1.26 1.27 1.40 1.64 1.84 2.24 2.25 1.79 1.56 1.47 1.59 1.33 1.66 1.93 1.90 1.83 1.69 1.48
1.47 1.46 1.51 1.56 1.59 1.65 1.80 1.89 1.97 1.88 1.61 1.51 1.52 1.45 1.38 1.38 1.40 1.35 1.40 1.37 1.31 1.31 1.37 1.45 1.42 1.38 1.40 1.53 1.66 1.85 2.26 2.43 2.03 1.82 1.56 1.59 1.32 1.64 1.98 1.82 1.64 1.56 1.58
2.22 2.05 1.81 1.66 1.76 1.67 1.74 1.97 2.08 1.80 1.57 1.50 1.56 1.55 1.53 1.61 1.62 1.64 1.54 1.54 1.61 1.71 1.72 1.78 1.68 1.60 1.63 1.75 1.88 2.06 2.33 2.22 2.01 2.13 2.02 1.62 1.39 1.75 2.05 2.14 1.91 1.66 1.59
2.71 2.52 2.24 2.00 1.83 1.89 1.88 1.93 2.25 2.06 1.83 1.89 2.12 2.13 2.26 2.66 2.44 2.44 1.96 1.97 2.15 2.33 2.36 2.37 2.29 2.14 1.99 1.91 2.16 2.38 2.25 2.06 2.41 2.55 2.31 1.62 1.64 2.17 2.40 2.49 2.31 2.09 1.93
2.76 2.49 2.35 2.28 1.95 1.94 2.05 2.47 2.99 2.59 2.41 2.52 2.82 2.76 3.14 3.18 3.00 2.25 2.24 2.63 2.89 3.22 3.28 3.25 3.25 2.85 2.43 2.18 2.47 2.50 2.22 2.38 2.78 2.42 2.01 1.63 1.81 2.35 2.73 2.79 2.58 2.30 2.22
2.61 2.50 2.26 2.55 2.30 2.37 2.72 2.80 3.00 3.04 2.94 2.95 3.04 3.03 3.31 2.96 2.61 2.50 2.91 3.31 3.61 3.75 3.88 3.84 3.74 3.13 3.12 3.27 3.21 2.89 2.77 2.71 2.97 2.60 2.00 1.85 2.05 2.51 2.88 2.98 2.76 2.53 2.40
2.50 2.47 2.51 2.68 2.78 2.98 3.01 2.90 2.75 2.54 2.54 2.72 2.91 2.86 3.03 3.14 3.12 3.08 3.36 3.54 3.80 4.17 4.56 4.39 4.35 3.98 3.88 3.62 3.39 3.39 3.17 2.82 3.13 3.26 2.62 2.17 2.31 2.78 3.07 3.10 2.93 2.79 2.82
3.20 3.00 3.06 3.29 3.29 3.26 3.29 3.03 2.54 2.37 2.26 2.30 2.46 2.57 2.51 2.91 3.22 3.26 3.18 3.32 3.23 3.44 3.89 4.49 4.36 4.51 4.38 3.92 3.42 3.31 3.41 3.24 3.19 3.12 2.65 2.56 2.77 2.86 2.97 3.05 3.08 3.07 3.10
4.20 3.97 3.77 3.90 3.54 3.33 3.28 3.04 2.79 2.42 2.43 2.32 2.26 2.19 2.36 2.64 3.01 3.03 3.03 3.31 3.30 3.19 3.37 3.86 4.02 4.45 4.40 3.98 3.37 3.07 3.10 3.19 3.07 2.96 2.76 2.69 2.74 2.60 2.71 3.12 3.48 3.64 3.57
5.31 4.91 4.33 4.07 3.81 3.61 3.47 3.12 2.73 2.53 2.36 2.49 2.47 2.29 2.30 2.43 2.72 2.74 2.86 2.91 2.94 2.84 3.00 3.23 3.45 3.74 3.65 3.46 3.35 3.11 2.99 2.90 2.71 2.79 2.83 2.72 2.43 2.58 2.69 2.94 3.29 3.56 3.80
6.04 5.50 4.77 4.01 4.13 4.08 3.88 3.28 2.80 2.59 2.53 2.50 2.37 2.19 2.08 2.20 2.20 2.36 2.42 2.40 2.44 2.33 2.49 2.90 2.95 3.18 3.35 3.34 3.49 3.20 2.96 3.01 2.77 2.73 2.71 2.76 2.78 2.44 2.74 2.88 3.05 3.22 3.59
6.16 6.00 5.37 5.23 5.05 4.43 3.77 3.21 2.84 2.62 2.57 2.33 2.26 2.21 2.10 2.01 2.09 2.26 2.43 2.45 2.10 2.13 2.31 2.13 2.60 2.87 3.06 3.08 2.64 2.76 2.50 2.54 2.51 2.19 2.29 2.26 2.52 2.59 2.79 2.71 2.91 2.96 3.31
5.19 5.10 5.03 5.17 4.77 4.17 3.57 3.14 2.93 2.69 2.42 2.25 2.21 2.28 2.24 2.14 2.14 2.49 2.33 2.16 1.95 2.29 2.60 2.67 3.00 2.92 2.77 2.80 2.28 2.36 2.18 2.02 2.12 2.02 1.90 2.00 2.15 2.12 2.51 2.71 2.80 2.50 2.84
3.72 3.83 4.16 4.33 4.10 3.65 3.26 2.79 2.67 2.62 2.39 2.20 2.11 1.94 2.11 2.05 2.28 2.65 2.39 2.68 2.34 2.38 2.54 2.61 2.86 2.79 2.48 2.42 2.81 2.84 2.24 1.78 1.85 1.74 1.68 1.89 1.88 2.01 2.42 2.75 2.93 2.91 2.72
2.94 3.22 3.56 3.79 3.66 3.08 2.85 2.67 2.59 2.56 2.40 2.42 2.29 2.27 2.01 2.01 2.25 2.32 2.68 2.46 2.50 2.62 2.64 2.74 2.91 2.91 2.61 2.55 2.96 3.31 2.90 2.77 2.38 1.61 1.68 1.82 1.83 2.07 2.15 2.19 2.51 2.96 2.86
2.72 2.95 2.85 3.10 3.29 3.01 2.92 2.87 2.78 2.75 2.55 2.64 2.58 2.46 2.07 1.93 1.95 2.15 2.33 2.34 2.57 2.37 2.73 2.96 2.91 3.02 3.01 2.82 2.88 3.31 3.32 3.17 2.65 2.05 1.66 1.63 1.85 2.24 2.25 2.29 2.14 2.47 2.79
2.00 2.30 2.65 2.97 3.06 2.97 2.86 2.70 2.60 2.39 2.33 2.35 2.33 2.33 2.20 2.08 1.95 2.03 2.18 2.47 2.63 2.36 2.91 2.50 2.64 2.91 3.07 2.88 2.87 2.73 2.84 3.06 3.12 2.83 2.25 1.76 1.74 1.97 2.20 2.03 2.04 2.41 2.73
1.43 1.84 2.42 2.89 3.12 3.00 2.68 2.55 2.67 2.52 2.43 2.38 2.25 2.43 2.29 2.14 1.97 1.86 2.15 2.42 2.53 2.41 2.57 2.63 2.91 2.81 2.76 2.76 2.84 2.92 3.04 2.99 2.73 2.87 2.79 2.42 2.10 1.65 1.56 1.72 2.01 2.21 2.43
1.24 1.51 1.96 2.40 2.68 2.74 2.60 2.47 2.54 2.64 2.60 2.46 2.33 2.29 2.11 2.07 2.00 1.92 2.11 2.41 2.37 2.39 2.57 2.55 2.72 2.72 2.78 2.88 2.73 2.68 2.92 2.90 2.79 2.87 2.57 2.38 2.27 1.64 1.40 1.44 1.64 2.03 2.21